Location: Oberwangen
(47.4286°N, 8.9679°E)
Time: 05:56:33
(UTC+00:00)

Cosmos 2219 Rocket - Visible Passes

Search period start: 26 October 2021 00:00
Search period end: 05 November 2021 00:00
Orbit: 828 x 846 km, 71.0° (Epoch: 25 October)

Date Brightness Start Highest point End Pass type
(mag) Time Alt. Az. Time Alt. Az. Time Alt. Az.
26 Oct 4.0 02:47:06 11° N 02:51:36 28° NE 02:56:27 10° ESE visible
26 Oct 2.2 04:30:22 10° NNW 04:35:56 59° WSW 04:41:29 10° S visible
26 Oct 3.0 17:41:14 10° SSE 17:45:47 26° ESE 17:46:51 25° E visible
26 Oct 2.9 19:23:55 10° SW 19:28:40 51° W 19:28:40 51° W visible
27 Oct 4.0 02:32:09 18° N 02:35:08 27° NE 02:39:53 10° ESE visible
27 Oct 2.1 04:13:57 10° NNW 04:19:32 63° WSW 04:25:07 10° SSE visible
27 Oct 3.2 17:25:01 10° SSE 17:29:25 24° ESE 17:32:08 17° ENE visible
27 Oct 2.6 19:07:27 10° SW 19:12:57 58° WNW 19:13:56 50° NNW visible
27 Oct 5.0 20:55:12 10° WNW 20:55:44 11° WNW 20:55:44 11° WNW visible
28 Oct 4.1 02:17:26 24° NNE 02:18:40 25° NE 02:23:19 10° ESE visible
28 Oct 2.1 03:59:15 21° NW 04:03:08 68° WSW 04:08:44 10° SSE visible
28 Oct 3.3 17:08:48 10° SSE 17:13:03 23° ESE 17:17:12 11° NE visible
28 Oct 2.5 18:50:59 10° SW 18:56:32 62° WNW 18:58:59 33° N visible
28 Oct 4.8 20:38:30 10° WNW 20:40:46 15° NW 20:40:46 15° NW visible
29 Oct 4.2 02:02:56 23° ENE 02:02:56 23° ENE 02:06:45 10° E visible
29 Oct 2.0 03:44:45 41° NW 03:46:44 73° WSW 03:52:22 10° SSE visible
29 Oct 3.9 05:28:01 10° WNW 05:29:38 11° W 05:31:15 10° WSW visible
29 Oct 3.4 16:52:37 10° SSE 16:56:42 21° E 17:00:48 10° NE visible
29 Oct 2.4 18:34:32 10° SW 18:40:06 66° WNW 18:43:47 22° NNE visible
29 Oct 4.7 20:21:50 10° WNW 20:25:12 16° NW 20:25:34 16° NNW visible
30 Oct 4.7 01:48:34 16° E 01:48:34 16° E 01:50:09 10° E visible
30 Oct 2.0 03:30:23 78° WSW 03:30:23 78° WSW 03:36:00 10° SSE visible
30 Oct 3.8 05:12:14 12° W 05:13:18 12° W 05:15:29 10° WSW visible
30 Oct 3.5 16:36:27 10° SE 16:40:21 20° E 16:44:15 10° NE visible
30 Oct 2.4 18:18:06 10° SW 18:23:41 71° WNW 18:28:25 15° NNE visible
30 Oct 4.6 20:05:10 10° WNW 20:08:42 17° NW 20:10:10 15° NNW visible
31 Oct 3.0 03:16:06 40° SSE 03:16:06 40° SSE 03:19:36 10° SSE visible
31 Oct 3.9 04:57:56 13° WSW 04:57:56 13° WSW 04:59:34 10° SW visible
31 Oct 2.3 18:01:40 10° SSW 18:07:15 76° WNW 18:12:52 10° NNE visible
31 Oct 4.6 19:48:31 10° W 19:52:13 18° NW 19:54:36 14° N visible
01 Nov 4.1 03:01:47 18° SSE 03:01:47 18° SSE 03:03:12 10° SSE visible
01 Nov 2.2 17:45:15 10° SSW 17:50:50 81° WNW 17:56:31 10° NNE visible
01 Nov 4.5 19:31:53 10° W 19:35:44 18° NW 19:38:55 12° N visible
02 Nov 2.2 17:28:50 10° SSW 17:34:26 86° WNW 17:40:06 10° NNE visible
02 Nov 4.5 19:15:16 10° W 19:19:14 19° NW 19:23:08 10° N visible
03 Nov 2.2 17:12:25 10° SSW 17:18:01 88° ESE 17:23:41 10° NNE visible
03 Nov 4.4 18:58:39 10° W 19:02:46 20° NW 19:06:55 10° N visible
04 Nov 2.2 16:56:01 10° SSW 17:01:37 83° ESE 17:07:16 10° NNE visible
04 Nov 4.3 18:42:03 10° W 18:46:17 21° NW 18:50:35 10° N visible
